TimeHST,TemperatureF,Dew PointF,Humidity,Sea Level PressureIn,VisibilityMPH,Wind Direction,Wind SpeedMPH,Gust SpeedMPH,PrecipitationIn,Events,Conditions,WindDirDegrees,DateUTC
12:53 AM,73.0,64.0,73,30.09,10.0,ENE,12.7,-,N/A,,Scattered Clouds,70,2012-12-18 10:53:00
1:53 AM,72.0,64.9,78,30.09,10.0,East,19.6,25.3,N/A,,Scattered Clouds,80,2012-12-18 11:53:00
2:53 AM,70.0,66.9,90,30.07,10.0,ENE,9.2,-,0.00,Rain,Light Rain,60,2012-12-18 12:53:00
3:53 AM,72.0,64.9,78,30.06,10.0,ENE,15.0,-,0.00,,Partly Cloudy,60,2012-12-18 13:53:00
4:53 AM,72.0,66.0,81,30.07,10.0,NE,10.4,-,N/A,,Partly Cloudy,50,2012-12-18 14:53:00
5:53 AM,71.1,64.9,81,30.06,10.0,ENE,10.4,-,N/A,,Partly Cloudy,60,2012-12-18 15:53:00
6:53 AM,72.0,64.9,78,30.08,10.0,East,10.4,-,N/A,,Scattered Clouds,80,2012-12-18 16:53:00
7:53 AM,73.0,66.0,79,30.09,10.0,NE,4.6,-,N/A,,Scattered Clouds,50,2012-12-18 17:53:00
8:53 AM,75.9,64.0,67,30.09,10.0,ENE,13.8,26.5,N/A,,Scattered Clouds,60,2012-12-18 18:53:00
9:53 AM,78.1,63.0,60,30.10,10.0,ENE,23.0,34.5,N/A,,Scattered Clouds,70,2012-12-18 19:53:00
10:53 AM,80.1,64.9,60,30.09,10.0,ENE,20.7,28.8,N/A,,Scattered Clouds,60,2012-12-18 20:53:00
11:53 AM,81.0,64.0,56,30.07,10.0,ENE,18.4,27.6,N/A,,Scattered Clouds,60,2012-12-18 21:53:00
12:53 PM,80.1,64.9,60,30.04,10.0,NE,17.3,28.8,N/A,,Scattered Clouds,50,2012-12-18 22:53:00
1:53 PM,78.1,66.9,68,30.02,10.0,NE,19.6,26.5,N/A,,Mostly Cloudy,50,2012-12-18 23:53:00
2:53 PM,80.1,64.9,60,30.01,10.0,NE,19.6,27.6,N/A,,Scattered Clouds,50,2012-12-19 00:53:00
3:53 PM,78.1,66.9,68,30.02,10.0,NE,17.3,27.6,N/A,,Mostly Cloudy,50,2012-12-19 01:53:00
4:53 PM,75.9,66.0,71,30.03,10.0,ENE,15.0,24.2,N/A,,Mostly Cloudy,60,2012-12-19 02:53:00
5:53 PM,75.0,64.9,71,30.03,10.0,ENE,19.6,27.6,N/A,,Scattered Clouds,60,2012-12-19 03:53:00
6:53 PM,75.0,64.9,71,30.04,10.0,NE,15.0,-,N/A,,Mostly Cloudy,50,2012-12-19 04:53:00
7:53 PM,73.9,66.0,76,30.05,10.0,NE,16.1,25.3,N/A,,Scattered Clouds,50,2012-12-19 05:53:00
8:53 PM,73.9,64.9,73,30.06,10.0,ENE,16.1,27.6,N/A,,Partly Cloudy,60,2012-12-19 06:53:00
9:53 PM,73.9,64.9,73,30.07,10.0,ENE,16.1,-,N/A,,Partly Cloudy,70,2012-12-19 07:53:00
10:53 PM,73.9,64.0,71,30.07,10.0,ENE,18.4,25.3,N/A,,Scattered Clouds,70,2012-12-19 08:53:00
11:53 PM,73.0,64.9,76,30.06,10.0,ENE,13.8,-,N/A,,Partly Cloudy,60,2012-12-19 09:53:00